DateTimeUTC,F1_A11,F1_S11,BsB_S11,BsG_S11,BsR_S11,BbsB_S11,BbsG_S11,BbsR_S11,BaB_A11,BaG_A11,BaR_A11,Tu_S11,T_S11,Uu_S11,U_S11,P_S11,T1_A11
2021-07-24T18:00:00Z,00000200,20000000,,,,,,,-000.37,0000.15,-000.16,19.7,26.2,09.1,06.2,0666.3,31.2
2021-07-24T18:01:00Z,00000200,20000000,,,,,,,0000.23,0000.03,0000.36,19.7,26.2,09.0,06.1,0666.3,31.2
2021-07-24T18:02:00Z,00000200,20000000,,,,,,,-000.68,-000.22,-000.52,19.7,26.2,09.0,06.1,0666.3,31.2
2021-07-24T18:03:00Z,00000200,60000000,,,,,,,0000.27,-000.06,0000.07,19.7,26.2,09.0,06.1,0666.3,31.2
2021-07-24T18:04:00Z,00000200,40000000,0001.22,0000.43,0000.19,0000.25,0000.05,0000.10,0000.16,0000.28,0000.10,19.8,26.1,09.2,06.3,0667.2,31.2
2021-07-24T18:05:00Z,00000200,00000000,0000.60,0000.08,0000.21,-000.09,0000.02,0000.19,0000.31,0000.02,0000.24,19.8,26.0,09.1,06.3,0667.3,31.2
2021-07-24T18:06:00Z,00000200,00000000,0000.13,0000.17,0000.29,0000.45,0000.12,-000.00,0000.29,0000.26,0000.03,19.8,26.0,09.3,06.4,0667.2,31.2
2021-07-24T18:07:00Z,00000200,00000000,0000.55,0000.09,0000.42,-000.47,0000.15,-000.04,0000.16,0000.49,0000.30,19.8,26.0,09.4,06.4,0667.3,31.2
2021-07-24T18:08:00Z,00000200,00000000,0000.79,0000.76,-000.04,-000.65,0000.21,0000.19,0000.06,-000.20,0000.09,19.8,26.0,09.4,06.5,0667.2,31.2
2021-07-24T18:09:00Z,00000200,00000000,0000.41,0000.43,0000.53,-000.09,-000.07,0000.29,-000.15,0000.01,0000.08,19.8,26.0,09.4,06.5,0667.2,31.2
2021-07-24T18:10:00Z,00000200,00000000,0000.83,0000.38,0000.32,0000.27,0000.44,0000.42,0000.50,0000.44,-000.04,19.8,26.0,09.4,06.5,0667.2,31.2
2021-07-24T18:11:00Z,00000200,00000000,0000.52,0000.67,0000.28,0000.25,0000.18,0000.02,0000.03,-000.17,0000.30,19.8,26.0,09.5,06.5,0667.2,31.2
2021-07-24T18:12:00Z,00000200,00000000,0000.16,0000.46,0000.10,0000.09,0000.04,0000.01,0000.33,0000.33,0000.40,19.8,26.0,09.5,06.6,0667.2,31.1
2021-07-24T18:13:00Z,00000200,00000000,0000.79,0000.40,0000.36,0000.11,0000.29,0000.08,0000.09,0000.16,0000.25,19.8,26.0,09.5,06.6,0667.2,31.2
2021-07-24T18:14:00Z,00000200,00000000,0001.24,0000.43,0000.22,-000.13,0000.08,0000.19,-000.12,0000.30,-000.07,19.8,26.0,09.6,06.6,0667.2,31.1
2021-07-24T18:15:00Z,00000200,00000000,0000.18,0000.68,-000.05,0000.03,0000.27,0000.47,0000.14,-000.08,-000.11,19.8,26.0,09.6,06.6,0667.2,31.2
2021-07-24T18:16:00Z,00000200,00000000,0001.09,0000.45,0000.17,0000.62,0000.15,0000.18,0000.03,0000.14,0000.07,19.8,26.0,09.6,06.6,0667.3,31.2
2021-07-24T18:17:00Z,00000200,00000000,0001.18,0000.18,0000.16,-000.00,-000.04,0000.00,0000.02,0000.01,0000.15,19.8,26.0,09.6,06.6,0667.3,31.2
2021-07-24T18:18:00Z,00000200,00000000,0000.96,0000.63,0000.19,0000.51,0000.01,0000.48,0000.25,-000.11,-000.03,19.8,26.0,09.6,06.6,0667.2,31.2
2021-07-24T18:19:00Z,00000200,00000000,0000.46,0000.19,0000.53,-000.29,0000.01,0000.28,0000.26,0000.43,0000.37,19.8,26.0,09.6,06.6,0667.3,31.1
2021-07-24T18:20:00Z,00000200,00000000,0001.11,0000.71,0000.42,-000.19,-000.05,0000.06,-000.03,-000.18,-000.16,19.8,26.0,09.5,06.6,0667.2,31.2
2021-07-24T18:21:00Z,00000200,00000000,0000.33,0000.16,0000.12,0000.24,-000.06,0000.48,0000.13,0000.28,0000.21,19.8,26.0,09.5,06.6,0667.3,31.2
2021-07-24T18:22:00Z,00000200,00000000,0000.64,0000.71,-000.11,0000.05,0000.16,-000.06,-000.51,-000.31,-000.23,19.8,25.9,09.5,06.5,0667.3,31.1
2021-07-24T18:23:00Z,00000200,00000000,0000.92,0000.32,0000.17,0000.46,0000.15,-000.01,0000.46,-000.08,0000.02,19.8,25.9,09.4,06.5,0667.3,31.2
2021-07-24T18:24:00Z,00000200,00000000,0000.55,0000.61,0000.59,0000.20,0000.12,0000.23,0000.31,0000.41,-000.09,19.8,25.9,09.5,06.5,0667.3,31.2
2021-07-24T18:25:00Z,00000200,00000000,0000.91,0000.33,-000.05,0000.06,0000.07,0000.34,0000.30,0000.21,0000.75,19.8,25.9,09.5,06.6,0667.3,31.1
2021-07-24T18:26:00Z,00000200,00000000,0000.88,0000.28,0000.19,-000.00,0000.25,0000.10,0000.06,0000.02,-000.21,19.8,25.9,09.6,06.6,0667.3,31.1
2021-07-24T18:27:00Z,00000200,00000000,0000.61,0000.44,0000.68,-000.14,0000.23,0000.58,-000.07,0000.20,0000.26,19.7,25.9,09.6,06.6,0667.3,31.1
2021-07-24T18:28:00Z,00000200,00000000,0000.34,0000.34,0000.43,-000.08,0000.30,0000.30,0000.13,0000.29,0000.22,19.8,25.9,09.7,06.7,0667.3,31.1
2021-07-24T18:29:00Z,00000200,00000000,0000.20,0000.52,0000.33,0000.02,-000.16,0000.14,0000.01,0000.14,0000.11,19.8,25.9,09.7,06.7,0667.3,31.2
2021-07-24T18:30:00Z,00000200,00000000,0000.15,0000.63,0000.53,-000.60,0000.13,0000.36,0000.15,-000.13,-000.24,19.7,25.9,09.7,06.7,0667.3,31.1
2021-07-24T18:31:00Z,00000200,00000000,0000.48,0000.59,0000.37,-000.19,0000.02,-000.02,0000.42,0000.22,0000.39,19.7,25.9,09.7,06.7,0667.3,31.1
2021-07-24T18:32:00Z,00000200,00000000,0000.85,0000.67,0000.39,0000.29,-000.18,0000.21,0000.14,0000.23,-000.26,19.7,25.9,09.8,06.7,0667.3,31.1
2021-07-24T18:33:00Z,00000200,00000000,0000.32,0000.48,0000.65,0000.22,0000.14,0000.19,0000.13,0000.03,0000.39,19.7,25.9,09.9,06.8,0667.3,31.2
2021-07-24T18:34:00Z,00000200,00000000,0000.37,0000.72,0000.30,-000.53,-000.16,0000.40,-000.06,0000.32,0000.00,19.7,25.9,09.8,06.8,0667.3,31.1
2021-07-24T18:35:00Z,00000200,00000000,0000.72,0000.46,0000.47,-000.41,0000.04,0000.29,0000.01,-000.08,-000.03,19.7,25.9,09.8,06.8,0667.3,31.2
2021-07-24T18:36:00Z,00000200,00000000,0000.23,0000.58,0000.39,-000.02,0000.04,0000.19,0000.26,0000.13,0000.16,19.7,25.9,09.9,06.8,0667.3,31.2
2021-07-24T18:37:00Z,00000200,00000000,-000.12,0000.46,0000.17,0000.23,0000.35,0000.12,-000.34,0000.01,0000.12,19.7,25.9,09.8,06.8,0667.3,31.1
2021-07-24T18:38:00Z,00000200,00000000,0000.42,0000.40,0000.01,-000.18,0000.21,0000.38,0000.29,0000.01,0000.28,19.7,25.9,09.9,06.8,0667.3,31.2
2021-07-24T18:39:00Z,00000200,00000000,0000.67,0000.67,0000.58,0000.26,0000.08,0000.38,-000.06,0000.17,-000.17,19.7,25.9,09.8,06.8,0667.4,31.1
2021-07-24T18:40:00Z,00000200,00000000,0001.52,0000.50,0000.27,0000.35,0000.05,-000.02,0000.49,0000.13,0000.05,19.7,25.9,09.9,06.8,0667.4,31.1
2021-07-24T18:41:00Z,00000200,00000000,0000.07,0000.52,0000.27,0000.25,0000.07,-000.18,-000.30,-000.53,0000.19,19.7,25.9,09.8,06.8,0667.4,31.1
2021-07-24T18:42:00Z,00000200,00000000,0000.90,0000.21,-000.14,-000.15,0000.06,-000.05,0000.35,0000.51,-000.03,19.7,25.8,09.7,06.7,0667.3,31.1
2021-07-24T18:43:00Z,00000200,00000000,0000.32,0000.32,0000.60,0000.36,0000.37,0000.26,-000.47,0000.16,-000.10,19.7,25.8,09.7,06.7,0667.3,31.1
2021-07-24T18:44:00Z,00000200,00000000,0000.39,0000.54,-000.05,-000.23,0000.12,-000.27,0000.20,-000.36,0000.12,19.7,25.8,09.7,06.7,0667.3,31.2
2021-07-24T18:45:00Z,00000200,00000000,0000.46,0000.67,0000.00,0000.00,0000.45,0000.24,0000.37,0000.17,-000.11,19.7,25.8,09.7,06.7,0667.3,31.1
2021-07-24T18:46:00Z,00000200,00000000,0000.86,0000.57,0000.25,0000.57,0000.45,0000.07,-000.20,0000.11,-000.19,19.7,25.8,09.7,06.7,0667.4,31.1
2021-07-24T18:47:00Z,00000200,00000000,0000.78,0000.60,0000.09,0000.01,-000.01,0000.18,-000.11,0000.06,0000.32,19.7,25.8,09.6,06.6,0667.3,31.1
2021-07-24T18:48:00Z,00000200,00000000,0000.69,0000.20,0000.22,0000.30,-000.10,0000.45,0000.33,0000.19,0000.04,19.7,25.8,09.6,06.6,0667.3,31.1
2021-07-24T18:49:00Z,00000200,00000000,0001.28,0000.52,0000.21,0000.09,0000.16,0000.09,-000.09,0000.02,0000.06,19.7,25.8,09.6,06.6,0667.4,31.1
2021-07-24T18:50:00Z,00000200,00000000,0000.47,0000.43,0000.14,-000.18,-000.00,0000.23,0000.34,-000.24,-000.18,19.7,25.8,09.6,06.6,0667.4,31.1
2021-07-24T18:51:00Z,00000200,00000000,0000.70,0000.29,-000.02,0000.32,-000.12,0000.30,-000.07,0000.11,0000.30,19.7,25.8,09.5,06.5,0667.4,31.1
2021-07-24T18:52:00Z,00000200,00000000,0000.16,0000.80,0000.19,0000.17,-000.10,0000.14,0000.11,0000.01,-000.22,19.7,25.8,09.6,06.6,0667.4,31.1
2021-07-24T18:53:00Z,00000200,00000000,0000.74,0000.43,0000.44,-000.31,0000.00,0000.11,-000.11,0000.43,0000.37,19.7,25.8,09.6,06.6,0667.4,31.1
2021-07-24T18:54:00Z,00000200,00000000,0000.16,0000.36,0000.20,0000.53,0000.23,0000.07,0000.44,0000.01,0000.14,19.7,25.8,09.7,06.7,0667.4,31.1
2021-07-24T18:55:00Z,00000200,00000000,0000.54,0000.60,-000.22,0000.35,-000.23,0000.15,0000.04,-000.03,-000.02,19.7,25.8,09.5,06.6,0667.4,31.1
2021-07-24T18:56:00Z,00000200,00000000,0000.63,0000.54,0000.49,0000.12,0000.13,0000.12,0000.01,0000.05,-000.21,19.6,25.8,09.6,06.6,0667.4,31.1
2021-07-24T18:57:00Z,00000200,40000000,,,,,,,-000.36,0000.05,0000.10,19.7,25.8,09.4,06.5,0667.4,31.1
2021-07-24T18:58:00Z,00000200,60000000,,,,,,,0000.07,-000.36,-000.11,19.5,25.9,09.6,06.5,0666.5,31.1
2021-07-24T18:59:00Z,00000200,20000000,,,,,,,0000.11,-000.11,-000.02,19.5,26.0,09.5,06.4,0666.4,31.1
